Regional Weather Roundup
Issued by NWS

Home | Current Version | Previous Version | Text Only | Print | Product List | Glossary On
Versions: 1 2 3 4 5 6 7 8 9 10 11 12 13 14 15 16 17 18 19 20 21 22 23 24 25 26 27
000
ASUS45 KBOI 210510
RWRID

IDAHO REGIONAL WEATHER ROUNDUP
NATIONAL WEATHER SERVICE BOISE ID
1100 PM MDT WED SEP 20 2017

NOTE: "FAIR" INDICATES FEW OR NO CLOUDS BELOW 12000 FEET
WITH NO SIGNIFICANT WEATHER AND/OR OBSTRUCTIONS TO VISIBILITY

IDZ012-014-210600-
SOUTHWEST IDAHO


CITY           SKY/WX    TMP DP  RH WIND       PRES   REMARKS
BOISE          CLOUDY    50  43  77 SE6       29.72S
CALDWELL       MOCLDY    48  45  89 NE6       29.71S
MOUNTAIN HOME  CLOUDY    50  48  94 S12       29.73S
$$

IDZ016-017-210600-
SOUTHCENTRAL IDAHO


CITY           SKY/WX    TMP DP  RH WIND       PRES   REMARKS
BURLEY         RAIN      47  46  97 S5        29.76R
JEROME         LGT RAIN  47  47 100 S5        29.77R
TWIN FALLS     LGT RAIN  46  45  96 S7        29.77F
$$

IDZ019>023-210600-
SOUTHEAST IDAHO


CITY           SKY/WX    TMP DP  RH WIND       PRES   REMARKS
IDAHO FALLS    LGT RAIN  47  44  90 SW10      29.77S
POCATELLO        N/A    N/A N/A N/A MISG      29.78R
REXBURG        LGT RAIN  47  43  86 SW12      29.76R
$$

IDZ006-010-011-018-031-032-210600-
CENTRAL IDAHO MOUNTAINS


CITY           SKY/WX    TMP DP  RH WIND       PRES   REMARKS
MCCALL         CLEAR     36  34  92 NW6       29.73F WCI  31
HAILEY         CLOUDY    46  39  76 CALM      29.75S
STANLEY          N/A     34  33  96 N3        29.77S
SALMON         CLEAR     38  36  92 CALM      29.76F
CHALLIS        MOCLDY    42  34  73 NW7       29.73F
$$

IDZ002-004-006-007-026-210600-
NORTHERN IDAHO


CITY           SKY/WX    TMP DP  RH WIND       PRES   REMARKS
LEWISTON       CLOUDY    51  42  71 SE3       29.75S
LOWELL           N/A     47  44  90 CALM      29.81R
COEUR D`ALENE  CLOUDY    43  41  93 CALM      29.74R
MULLAN PASS    CLOUDY    30  29  96 VRB6      29.70S WCI  24
$$




USA.gov is the U.S. government's official web portal to all federal, state and local government web resources and services.